Farmington, NM

2:20 AM MDT on April 21, 2018 (GMT -0600)
Four Corners Regional

Weather History for KFMN - August, 2013

Change the Weather History Date:

Sunday, August 18, 2013

  Actual Average Record
Temperature  
Mean Temperature 76 °F -  
Max Temperature 91 °F 86 °F 98 °F (2002)
Min Temperature 63 °F 57 °F 51 °F (2017)
Cooling Degree Days 12    
Growing Degree Days 26 (Base 50)    
Moisture  
Dew Point 44 °F    
Average Humidity 32    
Maximum Humidity 60    
Minimum Humidity 10    
Precipitation  
Precipitation 0.00 in - - ()
Sea Level Pressure  
Sea Level Pressure 30.01 in    
Wind  
Wind Speed 4 mph (SE)    
Max Wind Speed 12 mph    
Max Gust Speed -    
Visibility 10 miles    
Events Rain    
Averages and records for this station are not official NWS values.
T = Trace of Precipitation, MM = Missing Value Source: NWS Daily Summary

Daily Weather History Graph

Daily Weather History Graph

Search for Another Location

Airport or City:

Astronomy

Aug. 18, 2013 Rise Set
Actual Time 6:32 AM MDT 7:59 PM MDT
Civil Twilight 6:05 AM MDT 8:27 PM MDT
Nautical Twilight 5:32 AM MDT 8:59 PM MDT
Astronomical Twilight 4:58 AM MDT 9:33 PM MDT
Moon 6:07 PM MDT (8/18) 3:48 AM MDT (8/18)
Length of Visible Light 14h 21m
Length of Day
13h 26m
Waxing Gibbous, 92% of the Moon is Illuminated
Aug 18
Waxing Gibbous
Aug 20
Full
Aug 28
Last Quarter
Sep 5
New
Sep 12
First Quarter

Hourly Weather History & Observations

Time (MDT) Temp. Dew Point Humidity Pressure Visibility Wind Dir Wind Speed Gust Speed Precip Events Conditions
12:53 AM 69.1 °F 46.0 °F 44% 30.02 in 10.0 mi West 5.8 mph - N/A   Clear
1:53 AM 66.9 °F 46.0 °F 47% 30.02 in 10.0 mi Calm Calm - N/A   Clear
2:53 AM 66.0 °F 45.0 °F 47% 30.01 in 10.0 mi WSW 3.5 mph - N/A   Clear
3:53 AM 64.0 °F 45.0 °F 50% 30.05 in 10.0 mi Calm Calm - N/A   Clear
4:53 AM 64.9 °F 46.9 °F 52% 30.04 in 10.0 mi East 3.5 mph - N/A   Scattered Clouds
5:53 AM 63.0 °F 48.9 °F 60% 30.07 in 10.0 mi ENE 3.5 mph - 0.00 in Rain Light Rain
6:53 AM 64.9 °F 48.9 °F 56% 30.07 in 10.0 mi ENE 3.5 mph - N/A   Mostly Cloudy
7:53 AM 66.9 °F 48.9 °F 52% 30.09 in 10.0 mi Calm Calm - N/A   Mostly Cloudy
8:53 AM 70.0 °F 48.0 °F 46% 30.11 in 10.0 mi East 5.8 mph - N/A   Mostly Cloudy
9:53 AM 73.9 °F 48.0 °F 40% 30.09 in 10.0 mi East 4.6 mph - N/A   Clear
10:53 AM 78.1 °F 46.9 °F 33% 30.09 in 10.0 mi Calm Calm - N/A   Clear
11:53 AM 81.0 °F 46.0 °F 29% 30.07 in 10.0 mi SSW 4.6 mph - N/A   Clear
12:53 PM 86.0 °F 44.1 °F 23% 30.03 in 10.0 mi West 5.8 mph - N/A   Clear
1:53 PM 86.0 °F 42.1 °F 21% 30.01 in 10.0 mi Variable 3.5 mph - N/A   Clear
2:53 PM 89.1 °F 41.0 °F 19% 29.98 in 10.0 mi WSW 8.1 mph - N/A   Clear
3:53 PM 89.1 °F 41.0 °F 19% 29.95 in 10.0 mi Variable 6.9 mph - N/A   Clear
4:53 PM 90.0 °F 39.0 °F 17% 29.92 in 10.0 mi Variable 5.8 mph - N/A   Clear
5:53 PM 89.1 °F 39.9 °F 18% 29.92 in 10.0 mi Variable 5.8 mph - N/A   Clear
6:53 PM 88.0 °F 39.0 °F 18% 29.91 in 10.0 mi WSW 6.9 mph - N/A   Clear
7:53 PM 82.9 °F 39.0 °F 21% 29.93 in 10.0 mi WSW 5.8 mph - N/A   Clear
8:53 PM 81.0 °F 41.0 °F 24% 29.95 in 10.0 mi Calm Calm - N/A   Clear
9:53 PM 75.0 °F 41.0 °F 29% 29.97 in 10.0 mi NNE 6.9 mph - N/A   Clear
10:53 PM 79.0 °F 45.0 °F 30% 29.96 in 10.0 mi East 11.5 mph - N/A   Overcast
11:53 PM 75.9 °F 46.0 °F 35% 29.98 in 10.0 mi East 8.1 mph - N/A   Mostly Cloudy